Regional Weather Roundup
Issued by NWS

Home | Current Version | Previous Version | Graphics & Text | Print | Product List | Glossary On
Versions: 1 2 3 4 5 6 7 8 9 10 11 12 13 14 15 16 17 18 19 20 21 22 23 24 25 26 27 28 29 30 31 32 33 34 35 36 37 38 39 40 41 42 43 44 45 46 47 48 49 50
000
ASUS45 KABQ 282001
RWRNM
WEATHER ROUNDUP FOR NEW MEXICO
NATIONAL WEATHER SERVICE ALBUQUERQUE NM
200 PM MDT SAT MAR 28 2015

NOTE: "FAIR" MEANS FEW OR NO CLOUDS BELOW 12,000 FEET AGL WITH NO
       SIGNIFICANT WEATHER OR OBSTRUCTIONS TO VISION.

      THIS PRODUCT IS RELEASED AS TWO VERSIONS.  ONE VERSION NEAR
      THE TOP OF THE HOUR CONTAINING PRELIMINARY DATA FROM ALBUQUERQUE
      AND OTHER STATIONS.  A FINAL VERSION WITH ADDITIONAL DATA IS
      ISSUED ABOUT 10 MINUTES AFTER THE HOUR.

NMZ501-503-504-510>518-282100-
NORTHWEST PLATEAU/NORTHCENTRAL MOUNTAINS

CITY           SKY/WX    TMP DP  RH WIND       PRES   REMARKS
FARMINGTON     SUNNY     75  20  12 W15G22    30.17F
SANTA FE       SUNNY     71  17  12 SW12      30.20F
TAOS           SUNNY     66  21  18 W15G21    30.23F

$$
NMZ402-403-502-505>509-282100-
WESTCENTRAL MOUNTAINS/SOUTHWEST MOUNTAINS

CITY           SKY/WX    TMP DP  RH WIND       PRES   REMARKS
GALLUP         SUNNY     75   5   6 SW21      30.24F

$$
NMZ407-409-411-412-282100-
SOUTHERN DESERTS

CITY           SKY/WX    TMP DP  RH WIND       PRES   REMARKS
DEMING         SUNNY     84  17   8 W12G21    30.15F
ALAMOGORDO     MOSUNNY   81  18   9 NW12G17   30.13F
T OR C         SUNNY     80  17   9 S5        30.14F

$$
NMZ519>523-282100-
CENTRAL VALLEYS/CENTRAL HIGHLANDS

CITY           SKY/WX    TMP DP  RH WIND       PRES   REMARKS
ALBUQUERQUE    SUNNY     75  21  13 NW5       30.18F
DOUBLE EAGLE   SUNNY     73  19  13 NW10      30.21F
CLINES CORNERS SUNNY     71  15  11 NW13G25   30.22F
BELEN          FAIR      77  19  11 CALM      30.17F
SOCORRO        NOT AVBL

$$
NMZ524>526-539-540-282100-
SOUTHCENTRAL MOUNTAINS

CITY           SKY/WX    TMP DP  RH WIND       PRES   REMARKS
RUIDOSO        NOT AVBL

$$
NMZ527>531-282100-
NORTHEAST HIGHLANDS/NORTHEAST PLAINS

CITY           SKY/WX    TMP DP  RH WIND       PRES   REMARKS
LAS VEGAS      SUNNY     72  19  13 SW14G20   30.19F
RATON          SUNNY     72  16  12 S12G17    30.12F
CLAYTON        SUNNY     79  21  11 W10       30.06F

$$
NMZ532>537-282100-
EASTCENTRAL PLAINS

CITY           SKY/WX    TMP DP  RH WIND       PRES   REMARKS
TUCUMCARI      SUNNY     80  15   8 CALM      30.05F
CANNON AFB     NOT AVBL
CLOVIS AIRPORT SUNNY     81  25  12 NW5       30.06F

$$
NMZ028-029-538-282100-
SOUTHEAST PLAINS

CITY           SKY/WX    TMP DP  RH WIND       PRES   REMARKS
ROSWELL        SUNNY     86  25  11 N14G23    30.04F
ARTESIA        SUNNY     84  32  15 VRB7G14   30.05F
CARLSBAD       SUNNY     87  26  11 N12       30.02F
HOBBS          MOSUNNY   84  25  11 W13G21    30.05F


$$


USA.gov is the U.S. government's official web portal to all federal, state and local government web resources and services.